Location: Oberkirch
(48.5323°N, 8.0787°E)
Time: 01:16:31
(UTC+00:00)

Cosmos 1656 Rocket - Pass Details

Date: 08 November 2025
Orbit: 791 x 846 km, 71.1° (Epoch: 13 December)

Event Time Altitude Azimuth Distance (km) Brightness Sun altitude
Exits shadow 05:05:50 - 334° (NNW) 3,289 6.4 -13.3°
Reaches altitude 10° 05:08:02 10° 338° (NNW) 2,472 5.8 -12.9°
Maximum altitude 05:13:38 57° 57° (ENE) 990 4.3 -12.0°
Drops below altitude 10° 05:19:13 10° 136° (SE) 2,463 7.0 -11.1°
Sets 05:21:42 0° 141° (SE) 3,392 7.8 -10.7°
